GW0883 Weather Reports


Display with metric or nautical units.
time (UTC)temp
F
wind
direction
speed
MPH
gust
MPH
rain 1hr
in
rain 24hr
in
rain mn
in
humidity
%
barometer
mb
20260906000227 0 0 0.0 0.0 0.00 0.04 0.00 100
20260905235317 0 0 0.0 0.0 0.00 0.04 0.00 100
20260905234317 0 0 0.0 0.0 0.00 0.04 0.00 100
20260905233332 0 0 0.0 0.0 0.00 0.04 0.00 100
20260905232318 0 0 0.0 0.0 0.00 0.04 0.00 100
20260905231319 0 0 0.0 0.0 0.00 0.04 0.00 100
20260905230317 0 0 0.0 0.0 0.00 0.04 0.00 100
20260905225317 0 0 0.0 0.0 0.00 0.04 0.00 100
20260905224317 0 0 0.0 0.0 0.01 0.04 0.00 100
20260905222316 0 0 0.0 0.0 0.04 0.04 0.00 100
20260905221317 0 0 0.0 0.0 0.04 0.04 0.00 100
20260905220317 0 0 0.0 0.0 0.04 0.04 0.00 100
20260905215316 66 112 0.0 0.0 0.04 0.04 0.04 72 1014.4
20260905214319 67 127 0.0 1.0 0.03 0.03 0.02 72 1014.3
20260905213416 68 67 2.0 2.0 0.00 0.00 0.00 72 1013.9
20260905211418 0 0 0.0 0.0 0.00 0.00 0.00 100
20260905210515 0 0 0.0 0.0 0.00 0.00 0.00 100
20260905204615 0 0 0.0 0.0 0.00 0.00 0.00 100
20260905204515 0 0 0.0 0.0 0.00 0.00 0.00 100
20260905203516 0 0 0.0 0.0 0.00 0.00 0.00 100
20260905202517 0 0 0.0 0.0 0.00 0.00 0.00 100
20260905201516 0 0 0.0 0.0 0.00 0.00 0.00 100
20260905200615 0 0 0.0 0.0 0.00 0.00 0.00 100
20260905195616 69 90 0.0 0.0 0.00 0.00 0.00 70 1013.2
20260905194616 70 179 0.0 3.0 0.00 0.00 0.00 71 1013.2
20260905192617 70 22 6.0 6.0 0.00 0.00 0.00 70 1013.2
20260905191716 69 17 1.0 2.0 0.00 0.00 0.00 70 1013.2
20260905190716 68 314 1.0 3.0 0.00 0.00 0.00 70 1013.2
20260905185719 0 0 0.0 0.0 0.00 0.00 0.00 100
20260905185615 0 0 0.0 0.0 0.00 0.00 0.00 100
20260905184616 0 0 0.0 0.0 0.00 0.00 0.00 100
20260905183618 0 0 0.0 0.0 0.00 0.00 0.00 100
20260905182715 0 0 0.0 0.0 0.00 0.00 0.00 100
20260905181717 0 0 0.0 0.0 0.00 0.00 0.00 100
20260905180815 72 225 1.0 1.0 0.00 0.00 0.00 70 1013.1
20260905175816 72 315 1.0 1.0 0.00 0.00 0.00 70 1012.9
20260905173815 72 45 2.0 3.0 0.00 0.00 0.00 72 1012.9
20260905172817 71 360 0.0 0.0 0.00 0.00 0.00 72 1012.8
20260905171916 70 67 3.0 4.0 0.00 0.00 0.00 72 1012.7
20260905170932 70 45 4.0 4.0 0.00 0.00 0.00 72 1012.8
20260905165918 70 45 2.0 2.0 0.00 0.00 0.00 72 1012.7
20260905164114 72 22 0.0 0.0 0.00 0.00 0.00 73 1012.7
20260905163116 71 112 2.0 2.0 0.00 0.00 0.00 73 1012.8
20260905162116 72 67 4.0 6.0 0.00 0.00 0.00 74 1012.7
20260905161116 72 281 3.0 5.0 0.00 0.00 0.00 74 1012.7
20260905160117 72 45 2.0 2.0 0.00 0.00 0.00 75 1012.9
20260905154213 70 22 1.0 1.0 0.00 0.00 0.00 76 1012.9
20260905153212 71 45 3.0 3.0 0.00 0.00 0.00 76 1012.7
20260905152212 71 180 0.0 0.0 0.00 0.00 0.00 77 1012.8
20260905150213 69 292 4.0 4.0 0.00 0.00 0.00 77 1013.1
20260905145214 69 52 2.0 4.0 0.00 0.00 0.00 78 1012.7
20260905144213 69 43 1.0 2.0 0.00 0.00 0.00 78 1012.8
20260905143211 69 146 1.0 2.0 0.00 0.00 0.00 78 1013.1
20260905142215 68 84 3.0 9.0 0.00 0.00 0.00 79 1013.0
20260905141211 69 60 4.0 6.0 0.00 0.00 0.00 80 1012.9
20260905140226 68 67 4.0 4.0 0.00 0.00 0.00 80 1013.1
20260905135312 69 67 5.0 5.0 0.00 0.00 0.00 80 1013.2
20260905133314 68 75 4.0 4.0 0.00 0.00 0.00 82 1012.8
20260905132312 68 67 2.0 5.0 0.00 0.00 0.00 82 1012.8
20260905131312 68 77 0.0 0.0 0.00 0.00 0.00 83 1012.7
20260905124314 69 35 4.0 8.0 0.00 0.00 0.00 86 1012.5
20260905123411 69 65 1.0 1.0 0.00 0.00 0.00 86 1012.4
20260905122410 68 11 1.0 3.0 0.00 0.00 0.00 86 1012.2
20260905121411 68 45 4.0 4.0 0.00 0.00 0.00 87 1012.2
20260905120413 67 225 3.0 3.0 0.00 0.00 0.00 87 1012.0
20260905115410 66 112 1.0 1.0 0.00 0.00 0.00 88 1012.1
20260905113413 0 0 0.0 0.0 0.00 0.00 0.00 100
20260905112510 62 225 0.0 0.0 0.00 0.00 0.00 88 1012.1
20260905110528 59 112 0.0 0.0 0.00 0.00 0.00 87 1012.0
20260905105624 0 0 0.0 0.0 0.00 0.00 0.00 100
20260905104627 0 0 0.0 0.0 0.00 0.00 0.00 100
20260905103627 0 0 0.0 0.0 0.00 0.00 0.00 100
20260905102627 0 0 0.0 0.0 0.00 0.00 0.00 100
20260905101626 0 0 0.0 0.0 0.00 0.00 0.00 100
20260905100626 0 0 0.0 0.0 0.00 0.00 0.00 100
20260905095628 0 0 0.0 0.0 0.00 0.00 0.00 100
20260905094626 0 0 0.0 0.0 0.00 0.00 0.00 100
20260905093627 0 0 0.0 0.0 0.00 0.00 0.00 100
20260905092724 0 0 0.0 0.0 0.00 0.00 0.00 100
20260905091727 0 0 0.0 0.0 0.00 0.00 0.00 100
20260905090726 0 0 0.0 0.0 0.00 0.00 0.00 100
20260905085728 0 0 0.0 0.0 0.00 0.00 0.00 100
20260905084726 0 0 0.0 0.0 0.00 0.00 0.00 100
20260905082725 0 0 0.0 0.0 0.00 0.00 0.00 100
20260905081824 0 0 0.0 0.0 0.00 0.00 0.00 100
20260905080826 0 0 0.0 0.0 0.00 0.00 0.00 100
20260905075827 0 0 0.0 0.0 0.00 0.00 0.00 100
20260905074925 0 0 0.0 0.0 0.00 0.00 0.00 100
20260905073925 0 0 0.0 0.0 0.00 0.00 0.00 100
20260905073024 0 0 0.0 0.0 0.00 0.00 0.00 100
20260905072124 0 0 0.0 0.0 0.00 0.00 0.00 100
20260905071126 0 0 0.0 0.0 0.00 0.00 0.00 100
20260905070126 0 0 0.0 0.0 0.00 0.00 0.00 100
20260905065125 0 0 0.0 0.0 0.00 0.00 0.00 100
20260905064126 0 0 0.0 0.0 0.00 0.00 0.00 100
20260905063224 0 0 0.0 0.0 0.00 0.00 0.00 100
20260905062226 0 0 0.0 0.0 0.00 0.00 0.00 100
20260905061226 0 0 0.0 0.0 0.00 0.00 0.00 100
20260905060306 0 0 0.0 0.0 0.00 0.00 0.00 100
20260905055403 60 202 1.0 1.0 0.00 0.00 0.00 81 1012.4
20260905054404 0 0 0.0 0.0 0.00 0.00 0.00 100
20260905053405 0 0 0.0 0.0 0.00 0.00 0.00 100
20260905051503 0 0 0.0 0.0 0.00 0.00 0.00 100
20260905044506 0 0 0.0 0.0 0.00 0.00 0.00 100
20260905043505 0 0 0.0 0.0 0.00 0.00 0.00 100
20260905041505 0 0 0.0 0.0 0.00 0.00 0.00 100
20260905040505 0 0 0.0 0.0 0.00 0.00 0.00 100
20260905035528 0 0 0.0 0.0 0.00 0.00 0.00 100
20260905034627 0 0 0.0 0.0 0.00 0.00 0.00 100
20260905033631 0 0 0.0 0.0 0.00 0.00 0.00 100
20260905031727 0 0 0.0 0.0 0.00 0.00 0.00 100
20260905030730 0 0 0.0 0.0 0.00 0.00 0.00 100
20260905025744 0 0 0.0 0.0 0.00 0.00 0.00 100
20260905024828 0 0 0.0 0.0 0.00 0.00 0.00 100
20260905023928 0 0 0.0 0.0 0.00 0.00 0.00 100
20260905022929 0 0 0.0 0.0 0.00 0.00 0.00 100
20260905022028 0 0 0.0 0.0 0.00 0.00 0.00 100
20260905021028 0 0 0.0 0.0 0.00 0.00 0.00 100
20260905020107 0 0 0.0 0.0 0.00 0.00 0.00 100
20260905015108 0 0 0.0 0.0 0.00 0.00 0.00 100
20260905014207 0 0 0.0 0.0 0.00 0.00 0.00 100
20260905013305 0 0 0.0 0.0 0.00 0.00 0.00 100
20260905012307 0 0 0.0 0.0 0.00 0.00 0.00 100
20260905011309 0 0 0.0 0.0 0.00 0.00 0.00 100
20260905010305 0 0 0.0 0.0 0.00 0.00 0.00 100
20260905005307 0 0 0.0 0.0 0.00 0.00 0.00 100
20260905004307 0 0 0.0 0.0 0.00 0.00 0.00 100
20260905003307 0 0 0.0 0.0 0.00 0.00 0.00 100
20260905002308 0 0 0.0 0.0 0.00 0.00 0.00 100
20260905001307 0 0 0.0 0.0 0.00 0.00 0.00 100